Tracking 19489 objects as of 23-Jan-2019
HD Live streaming from Space Station
objects crossing your sky now

BREEZE-M DEB (TANK)

Track BREEZE-M DEB (TANK) now!
10-day predictions
BREEZE-M DEB (TANK) is classified as:


NORAD ID: 28116
Int'l Code: 2003-056E
Perigee: 294.6 km
Apogee: 18,508.5 km
Inclination: 52.8 °
Period: 328.6 minutes
Semi major axis: 15772 km
RCS: 6.743 m2 (large)
Launch date: December 10, 2003
Source: Commonwealth of Independent States (former USSR) (CIS)
Launch site: TYURATAM MISSILE AND SPACE COMPLEX (TTMTR)

Note: This is SATELLITE DEBRIS
aabbcc
Your satellite tracking list
Your tracking list is empty




NASA's NSSDC Master Catalog

Two Line Element Set (TLE):
1 28116U 03056E   19022.70540191  .00001209  00000-0  21203-3 0  9996
2 28116  52.8437 192.3368 5773896  74.0880 339.7768  4.38277940238700
Source of the keplerian elements: AFSPC